This is the latest recevied weather packets stored in our database for station/object KE0QIB. If no packets are shown the sender has not sent any weather packets the latest 10 day(s).
| Time | Temp. | Humidity | Pressure | Rain* | Wind** | Luminosity | Snow |
|---|---|---|---|---|---|---|---|
| 1777849618 | 15° C | 60% | 992.8 hPa | 0 mm | - | - | - |
| 1777849318 | 14.44° C | 62% | 992.8 hPa | 0 mm | - | - | - |
| 1777849018 | 13.89° C | 64% | 992.8 hPa | 0 mm | - | - | - |
| 1777848718 | 13.33° C | 65% | 993.4 hPa | 0 mm | - | - | - |
| 1777848418 | 13.33° C | 66% | 993.4 hPa | 0 mm | - | - | - |
| 1777848118 | 13.33° C | 68% | 993.4 hPa | 0 mm | - | - | - |
| 1777847818 | 12.78° C | 69% | 994 hPa | 0 mm | - | - | - |
| 1777847518 | 12.78° C | 72% | 994 hPa | 0 mm | - | - | - |
| 1777847218 | 12.78° C | 73% | 994 hPa | 0 mm | - | - | - |
| 1777846918 | 12.22° C | 74% | 994.7 hPa | 0 mm | - | - | - |
| 1777846618 | 12.22° C | 75% | 994.7 hPa | 0 mm | - | - | - |
| 1777846318 | 12.22° C | 74% | 994.7 hPa | 0 mm | - | - | - |
| 1777846018 | 12.22° C | 78% | 994.9 hPa | 0 mm | - | - | - |
| 1777845718 | 11.67° C | 80% | 994.9 hPa | 0 mm | - | - | - |
| 1777845418 | 11.67° C | 80% | 994.9 hPa | 0 mm | - | - | - |
| 1777845118 | 11.67° C | 81% | 995.2 hPa | 0 mm | - | - | - |
| 1777844818 | 11.67° C | 83% | 995.2 hPa | 0 mm | - | - | - |
| 1777844518 | 11.67° C | 84% | 995.2 hPa | 0 mm | - | - | - |
| 1777844218 | 11.67° C | 85% | 995.5 hPa | 0.25 mm | - | - | - |
| 1777843918 | 11.11° C | 88% | 995.5 hPa | 0.76 mm | - | - | - |
| 1777843618 | 11.11° C | 89% | 995.5 hPa | 1.27 mm | - | - | - |
| 1777843318 | 11.11° C | 89% | 995.3 hPa | 1.78 mm | - | - | - |
| 1777843018 | 10.56° C | 89% | 995.3 hPa | 1.78 mm | - | - | - |
| 1777842718 | 10.56° C | 89% | 995.3 hPa | 1.78 mm | - | - | - |
| 1777842418 | 10.56° C | 88% | 996.3 hPa | 1.78 mm | - | - | - |
* Rain latest hour (hover to see other rain measurements)
** Current wind speed in m/s (hover to see current wind gust speed)